Regional Weather Roundup
Issued by NWS

Home | Current Version | Previous Version | Text Only | Print | Product List | Glossary Off
Versions: 1 2 3 4 5 6 7 8 9 10 11 12 13 14 15 16 17 18 19 20 21 22 23 24 25 26 27 28 29 30 31 32 33 34 35 36 37 38 39 40 41 42 43 44 45 46 47 48 49 50

000
ASUS45 KBOU 270507
RWRCO

WEATHER ROUNDUP FOR COLORADO
NATIONAL WEATHER SERVICE DENVER/BOULDER CO
1100 PM MDT TUE AUG 26 2014

NOTE: "FAIR" INDICATES FEW OR NO CLOUDS BELOW 12000 FEET WITH NO
SIGNIFICANT WEATHER AND/OR OBSTRUCTIONS TO VISIBILITY.

COZ001>005-013-030-031-270600-
...NORTHWEST COLORADO...

CITY           SKY/WX    TMP DP  RH WIND       PRES   REMARKS
CRAIG          MOCLDY    60  49  66 VRB5      30.26S
HAYDEN         MOCLDY    57  46  67 SE7       30.28S
MEEKER         CLOUDY    59  50  72 W3        30.29R
MOUNT WERNER   NOT AVBL
STEAMBOAT SPGS MOCLDY    54  49  82 CALM      30.31S
WALDEN         CLOUDY    54  45  71 CALM      30.38S
$$

COZ006>008-011-270600-
...WEST CENTRAL VALLEYS...

CITY           SKY/WX    TMP DP  RH WIND       PRES   REMARKS
GRAND JUNCTION LGT RAIN  57  56  96 E12       30.24F
MONTROSE       RAIN      58  55  90 E3        30.33R
EAGLE          CLOUDY    57  54  88 E3        30.33S
RIFLE          LGT RAIN  60  52  74 W21       30.25R
DELTA          RAIN      61  58  91 S6        30.28S
NUCLA          LGT RAIN  55  54  94 E17       30.33F
$$

COZ017>023-064>068-270600-
...SOUTHWEST COLORADO...

CITY           SKY/WX    TMP DP  RH WIND       PRES   REMARKS
DURANGO        RAIN      55  52  89 SW13      30.36R FOG
CORTEZ         LGT RAIN  56  53  90 E15       30.28F
PAGOSA SPRINGS DRIZZLE   56  54  93 CALM      30.39R
TELLURIDE      NOT AVBL
WOLF CREEK PAS LGT RAIN  41  41 100 SW7       30.59F VSB<1/4
$$

COZ009-010-012-014-032>034-037-058>063-270600-
...CENTRAL COLORADO...

CITY           SKY/WX    TMP DP  RH WIND       PRES   REMARKS
ASPEN          RAIN      53  49  86 SE3       30.38R
BUENA VISTA    CLOUDY    54  51  90 NW5       30.40S
COPPER MTN     RAIN      45  37  76 CALM      30.62F VSB 1/2
BERTHOUD PASS  DRIZZLE   36  36 100 CALM      30.67S
COTTONWOOD PAS LGT RAIN  50  46  87 NW3       30.50S
GUNNISON       CLOUDY    54  48  82 CALM      30.40S
KREMMLING      CLOUDY    54  50  87 CALM      30.37S
LEADVILLE      RAIN      45  44  97 NE3       30.50S
MONARCH PASS   FOG       41  41 100 SE6       30.71S VSB 3/4
SALIDA         CLOUDY    57  53  86 CALM      30.44S
SUNLIGHT       CLOUDY    46  43  87 CALM      30.55S
WILKERSON PASS NOT AVBL
$$

COZ069>075-270600-
...SAN LUIS VALLEY/SANGRE DE CRISTO MOUNTAINS...

CITY           SKY/WX    TMP DP  RH WIND       PRES   REMARKS
ALAMOSA        CLOUDY    52  50  93 E7        30.35R
LA VETA PASS   NOT AVBL
SAGUACHE       CLOUDY    54  50  87 CALM      30.39F
$$

COZ035-036-038>040-270600-
...NORTHERN COLORADO FRONT RANGE...

CITY           SKY/WX    TMP DP  RH WIND       PRES   REMARKS
DENVER INTL AP CLOUDY    63  55  75 SW8       30.21F
DMNS CITY PARK   N/A     61  54  78 SW6G14    30.21S
AURORA         MOCLDY    62  53  74 SW9       30.25S
FRONT RANGE AP CLOUDY    63  55  77 SW7       30.23S
ERIE MUNI ARPT CLOUDY    64  52  64 CALM      30.20S
BOULDER MUN AP CLOUDY    64  50  59 SW9       30.20S
CENTENNIAL     CLOUDY    63  50  62 SW9       30.25F
BROOMFIELD     NOT AVBL
FORT COLLINS   CLOUDY    64  52  63 SE7       30.19S
LONGMONT       LGT RAIN  65  54  67 CALM      30.20F
$$

COZ041-046-047-076>085-087-088-270600-
...PIKES PEAK/PALMER DIVIDE AND SOUTHERN FOOTHILLS...

CITY           SKY/WX    TMP DP  RH WIND       PRES   REMARKS
COLO. SPRINGS  LGT RAIN  62  55  77 S6        30.31R
A. F. ACADEMY  CLOUDY    61  59  94 NW2       30.32R
ELLICOTT       CLOUDY    60  55  83 S5        30.28F
FALCON         CLOUDY    58  56  94 S5        30.35R
FORT CARSON    CLOUDY    63  53  71 SE3       30.28S
LIMON          CLOUDY    64  58  80 S6        30.25R
MONUMENT HILL  CLOUDY    54  52  94 SW3       30.33F
TRINIDAD       CLOUDY    62  57  83 S7        30.25F
$$

COZ042>045-048>051-090-091-270600-
...NORTHEAST COLORADO...

CITY           SKY/WX    TMP DP  RH WIND       PRES   REMARKS
GREELEY ARPT   CLOUDY    63  52  67 SE3       30.19S
AKRON          CLOUDY    65  62  90 E7        30.19R
BURLINGTON     CLOUDY    64  59  83 SE9       30.21R
WRAY             N/A     70  59  69 E3        30.16S
STERLING       CLOUDY    72  66  83 CALM      30.15S
HOLYOKE        CLOUDY    66  63  88 E7        30.17F
FORT MORGAN    CLOUDY    65  61  87 CALM      30.19R
$$

COZ086-089-092>099-270600-
...SOUTHEAST COLORADO...

CITY           SKY/WX    TMP DP  RH WIND       PRES   REMARKS
PUEBLO         CLOUDY    67  56  67 E8        30.20S
LA JUNTA       CLOUDY    66  62  87 E7        30.18S
LAMAR          CLOUDY    68  62  81 SE5       30.15S
SPRINGFIELD      N/A     63  61  93 S18       30.20S
$$


USA.gov is the U.S. government's official web portal to all federal, state and local government web resources and services.